Shannon, GA

10:44 PM EDT on September 26, 2016 (GMT -0400)
Russell

Weather History for KRMG - June, 2013

Change the Weather History Date:

Friday, June 14, 2013

  Actual Average Record
Temperature  
Mean Temperature 76 °F 76 °F  
Max Temperature 86 °F 87 °F 96 °F (2006)
Min Temperature 65 °F 65 °F 63 °F (1999)
Cooling Degree Days 11 11  
Month to date cooling degree days 170 132  
Year to date cooling degree days 313 300  
Since 1 June cooling degree days 170 132  
Growing Degree Days 26 (Base 50)    
Moisture  
Dew Point 61 °F    
Average Humidity 62    
Maximum Humidity 87    
Minimum Humidity 37    
Precipitation  
Precipitation 0.00 in 0.13 in 0.73 in (2008)
Month to date precipitation 2.92 1.85  
Year to date precipitation 17.72 24.72  
Sea Level Pressure  
Sea Level Pressure 29.91 in    
Wind  
Wind Speed 8 mph (North)    
Max Wind Speed 16 mph    
Max Gust Speed 21 mph    
Visibility 10 miles    
Events      
T = Trace of Precipitation, MM = Missing Value Source: NWS Daily Summary

Daily Weather History Graph

Daily Weather History Graph

Search for Another Location

Airport or City:

Trip Planner

Search our weather history database for the weather conditions in past years. The results will help you decide how hot, cold, wet, or windy it might be!

Date:

Astronomy

Jun. 14, 2013 Rise Set
Actual Time 6:27 AM EDT 8:54 PM EDT
Civil Twilight 5:58 AM EDT 9:23 PM EDT
Nautical Twilight 5:22 AM EDT 9:59 PM EDT
Astronomical Twilight 4:42 AM EDT 10:39 PM EDT
Moon 11:49 AM EDT (6/14) 12:11 AM EDT (6/14)
Length of Visible Light 15h 24m
Length of Day
14h 26m
Waxing Crescent, 30% of the Moon is Illuminated
Jun 14
Waxing Crescent
Jun 16
First Quarter
Jun 23
Full
Jun 30
Last Quarter
Jul 8
New

Hourly Weather History & Observations

Time (EDT) Temp. Heat Index Dew Point Humidity Pressure Visibility Wind Dir Wind Speed Gust Speed Precip Events Conditions
12:53 AM 73.0 °F - 68.0 °F 84% 29.86 in 10.0 mi NNW 4.6 mph - N/A   Clear
1:53 AM 71.1 °F - 66.9 °F 87% 29.86 in 10.0 mi NNW 6.9 mph - N/A   Clear
2:53 AM 71.1 °F - 66.0 °F 84% 29.85 in 10.0 mi North 8.1 mph - N/A   Clear
3:53 AM 71.1 °F - 63.0 °F 75% 29.86 in 10.0 mi North 6.9 mph - N/A   Clear
4:53 AM 68.0 °F - 62.1 °F 81% 29.87 in 10.0 mi NNW 4.6 mph - N/A   Clear
5:53 AM 66.9 °F - 61.0 °F 81% 29.87 in 10.0 mi NNW 8.1 mph - N/A   Clear
6:53 AM 68.0 °F - 60.1 °F 76% 29.90 in 10.0 mi NNW 9.2 mph - N/A   Clear
7:53 AM 69.1 °F - 62.1 °F 78% 29.92 in 10.0 mi North 4.6 mph - N/A   Clear
8:53 AM 72.0 °F - 62.1 °F 71% 29.93 in 10.0 mi North 10.4 mph - N/A   Clear
9:53 AM 75.0 °F - 61.0 °F 62% 29.94 in 10.0 mi North 9.2 mph - N/A   Clear
10:53 AM 78.1 °F - 61.0 °F 56% 29.94 in 10.0 mi North 9.2 mph - N/A   Clear
11:53 AM 80.1 °F 80.7 °F 59.0 °F 48% 29.95 in 10.0 mi NNE 12.7 mph 18.4 mph N/A   Clear
12:53 PM 81.0 °F 81.6 °F 60.1 °F 49% 29.95 in 10.0 mi North 11.5 mph - N/A   Clear
1:53 PM 82.9 °F 83.2 °F 60.1 °F 46% 29.94 in 10.0 mi North 12.7 mph - N/A   Clear
2:53 PM 84.0 °F 83.8 °F 59.0 °F 43% 29.92 in 10.0 mi North 11.5 mph 20.7 mph N/A   Clear
3:53 PM 84.9 °F 84.4 °F 59.0 °F 41% 29.91 in 10.0 mi North 11.5 mph - N/A   Clear
4:53 PM 84.9 °F 84.4 °F 59.0 °F 41% 29.90 in 10.0 mi NNE 11.5 mph - N/A   Clear
5:53 PM 84.9 °F 83.7 °F 55.9 °F 37% 29.91 in 10.0 mi North 13.8 mph - N/A   Clear
6:53 PM 84.0 °F 83.5 °F 57.9 °F 41% 29.91 in 10.0 mi North 10.4 mph - N/A   Clear
7:53 PM 81.0 °F 81.6 °F 60.1 °F 49% 29.93 in 10.0 mi North 5.8 mph - N/A   Clear
8:53 PM 75.0 °F - 61.0 °F 62% 29.94 in 10.0 mi NW 3.5 mph - N/A   Clear
9:53 PM 73.0 °F - 57.9 °F 59% 29.96 in 10.0 mi Calm Calm - N/A   Clear
10:53 PM 66.9 °F - 60.1 °F 79% 29.97 in 10.0 mi Calm Calm - N/A   Clear
11:53 PM 64.9 °F - 61.0 °F 87% 29.98 in 10.0 mi Calm Calm - N/A   Clear